{"data":{"norad_id":56392,"epoch":"2026-09-20T02:10:15.089952Z","epoch_age_seconds":147458,"freshness":"FRESH","line1":"1 56392U 23061U   26263.09045243 -.00000359  00000+0 -35096-5 0  9999","line2":"2 56392  43.0008 169.3479 0001052 264.1512  95.9220 15.27573752186602","mean_motion":15.27573752,"eccentricity":0.0001052,"inclination_deg":43.0008,"raan_deg":169.3479,"arg_perigee_deg":264.1512,"mean_anomaly_deg":95.922,"bstar":-3.5096e-6,"rev_number":18660,"period_min":94.267134278437,"perigee_km":482.34600611766,"apogee_km":483.7896036086,"semimajor_km":6861.2048048631,"source":"CELESTRAK","updated_at":"2026-09-21T09:00:33.433534Z"}}